| time (UTC) | temp F | wind direction | speed MPH | gust MPH | rain 1hr in | rain 24hr in | rain mn in | humidity % | barometer mb |
| 20260503055037 | 57 | 25 | 1.0 | 5.0 | 0.00 | 0.00 | 0.00 | 72 | 1019.9 |
| 20260503054550 | 56 | 348 | 1.0 | 6.0 | 0.00 | 0.00 | 0.00 | 72 | 1019.9 |
| 20260503054038 | 56 | 333 | 3.0 | 6.0 | 0.00 | 0.00 | 0.00 | 73 | 1019.9 |
| 20260503053536 | 55 | 302 | 2.0 | 4.0 | 0.00 | 0.00 | 0.00 | 74 | 1019.9 |
| 20260503053048 | 55 | 342 | 1.0 | 4.0 | 0.00 | 0.00 | 0.00 | 75 | 1019.9 |
| 20260503052536 | 54 | 332 | 2.0 | 4.0 | 0.00 | 0.00 | 0.00 | 75 | 1019.9 |
| 20260503052037 | 54 | 337 | 1.0 | 4.0 | 0.00 | 0.00 | 0.00 | 75 | 1019.8 |
| 20260503051549 | 54 | 326 | 2.0 | 4.0 | 0.00 | 0.00 | 0.00 | 76 | 1019.7 |
| 20260503051040 | 53 | 349 | 1.0 | 3.0 | 0.00 | 0.00 | 0.00 | 76 | 1019.8 |
| 20260503050537 | 53 | 345 | 0.0 | 3.0 | 0.00 | 0.00 | 0.00 | 77 | 1019.8 |
| 20260503050050 | 53 | 0 | 0.0 | 3.0 | 0.00 | 0.00 | 0.00 | 77 | 1019.8 |
| 20260503045539 | 53 | 345 | 1.0 | 3.0 | 0.00 | 0.00 | 0.00 | 77 | 1019.8 |
| 20260503045037 | 53 | 350 | 1.0 | 3.0 | 0.00 | 0.00 | 0.00 | 77 | 1019.8 |
| 20260503044545 | 52 | 352 | 1.0 | 3.0 | 0.00 | 0.00 | 0.00 | 77 | 1019.7 |
| 20260503044041 | 52 | 334 | 0.0 | 3.0 | 0.00 | 0.00 | 0.00 | 78 | 1019.8 |
| 20260503043536 | 52 | 309 | 2.0 | 4.0 | 0.00 | 0.00 | 0.00 | 77 | 1019.8 |
| 20260503043050 | 52 | 321 | 2.0 | 4.0 | 0.00 | 0.00 | 0.00 | 78 | 1019.8 |
| 20260503042536 | 52 | 302 | 1.0 | 3.0 | 0.00 | 0.00 | 0.00 | 78 | 1019.8 |
| 20260503042036 | 52 | 305 | 0.0 | 2.0 | 0.00 | 0.00 | 0.00 | 78 | 1019.6 |
| 20260503041546 | 52 | 340 | 0.0 | 2.0 | 0.00 | 0.00 | 0.00 | 78 | 1019.6 |
| 20260503041040 | 52 | 0 | 0.0 | 3.0 | 0.00 | 0.00 | 0.00 | 78 | 1019.6 |
| 20260503040537 | 52 | 0 | 0.0 | 3.0 | 0.00 | 0.00 | 0.00 | 78 | 1019.6 |
| 20260503040056 | 52 | 346 | 1.0 | 3.0 | 0.00 | 0.00 | 0.00 | 79 | 1019.6 |
| 20260503035540 | 52 | 332 | 2.0 | 3.0 | 0.00 | 0.00 | 0.00 | 79 | 1019.6 |
| 20260503035040 | 52 | 326 | 2.0 | 3.0 | 0.00 | 0.00 | 0.00 | 80 | 1019.7 |
| 20260503034549 | 52 | 335 | 1.0 | 3.0 | 0.00 | 0.00 | 0.00 | 79 | 1019.7 |
| 20260503034250 | 52 | 311 | 0.0 | 2.0 | 0.00 | 0.00 | 0.00 | 79 | 1019.7 |
| 20260503033906 | 52 | 0 | 0.0 | 2.0 | 0.00 | 0.00 | 0.00 | 79 | 1019.7 |
| 20260503033049 | 52 | 289 | 0.0 | 1.0 | 0.00 | 0.00 | 0.00 | 79 | 1019.7 |
| 20260503032537 | 52 | 0 | 0.0 | 1.0 | 0.00 | 0.00 | 0.00 | 78 | 1019.7 |
| 20260503032037 | 52 | 289 | 0.0 | 1.0 | 0.00 | 0.00 | 0.00 | 78 | 1019.7 |
| 20260503031545 | 52 | 0 | 0.0 | 0.0 | 0.00 | 0.00 | 0.00 | 77 | 1019.7 |
| 20260503031037 | 52 | 0 | 0.0 | 1.0 | 0.00 | 0.00 | 0.00 | 77 | 1019.7 |
| 20260503030537 | 52 | 0 | 0.0 | 1.0 | 0.00 | 0.00 | 0.00 | 77 | 1019.8 |
| 20260503030047 | 52 | 0 | 0.0 | 0.0 | 0.00 | 0.00 | 0.00 | 77 | 1019.8 |
| 20260503025536 | 52 | 0 | 0.0 | 0.0 | 0.00 | 0.00 | 0.00 | 76 | 1019.7 |
| 20260503025038 | 52 | 0 | 0.0 | 0.0 | 0.00 | 0.00 | 0.00 | 76 | 1019.7 |
| 20260503024548 | 53 | 0 | 0.0 | 0.0 | 0.00 | 0.00 | 0.00 | 76 | 1019.8 |
| 20260503024036 | 53 | 0 | 0.0 | 0.0 | 0.00 | 0.00 | 0.00 | 75 | 1019.8 |
| 20260503023537 | 53 | 0 | 0.0 | 0.0 | 0.00 | 0.00 | 0.00 | 75 | 1019.8 |
| 20260503023052 | 53 | 0 | 0.0 | 0.0 | 0.00 | 0.00 | 0.00 | 74 | 1019.8 |
| 20260503022536 | 54 | 0 | 0.0 | 0.0 | 0.00 | 0.00 | 0.00 | 74 | 1019.8 |
| 20260503022037 | 54 | 0 | 0.0 | 0.0 | 0.00 | 0.00 | 0.00 | 74 | 1019.9 |
| 20260503021551 | 54 | 0 | 0.0 | 0.0 | 0.00 | 0.00 | 0.00 | 73 | 1019.9 |
| 20260503021037 | 54 | 0 | 0.0 | 0.0 | 0.00 | 0.00 | 0.00 | 73 | 1019.9 |
| 20260503020537 | 54 | 0 | 0.0 | 0.0 | 0.00 | 0.00 | 0.00 | 73 | 1019.9 |
| 20260503020049 | 54 | 0 | 0.0 | 0.0 | 0.00 | 0.00 | 0.00 | 73 | 1020.0 |
| 20260503015536 | 55 | 0 | 0.0 | 0.0 | 0.00 | 0.00 | 0.00 | 72 | 1019.9 |
| 20260503015036 | 55 | 0 | 0.0 | 1.0 | 0.00 | 0.00 | 0.00 | 72 | 1019.9 |
| 20260503014543 | 55 | 0 | 0.0 | 1.0 | 0.00 | 0.00 | 0.00 | 72 | 1019.9 |
| 20260503014036 | 55 | 0 | 0.0 | 2.0 | 0.00 | 0.00 | 0.00 | 72 | 1019.9 |
| 20260503013538 | 55 | 0 | 0.0 | 2.0 | 0.00 | 0.00 | 0.00 | 71 | 1019.9 |
| 20260503013047 | 55 | 0 | 0.0 | 2.0 | 0.00 | 0.00 | 0.00 | 71 | 1020.0 |
| 20260503012539 | 55 | 259 | 1.0 | 3.0 | 0.00 | 0.00 | 0.00 | 71 | 1020.0 |
| 20260503012036 | 55 | 338 | 0.0 | 3.0 | 0.00 | 0.00 | 0.00 | 72 | 1020.0 |
| 20260503011546 | 55 | 338 | 1.0 | 3.0 | 0.00 | 0.00 | 0.00 | 71 | 1020.0 |
| 20260503011034 | 55 | 19 | 0.0 | 3.0 | 0.00 | 0.00 | 0.00 | 71 | 1020.0 |
| 20260503010535 | 55 | 15 | 1.0 | 3.0 | 0.00 | 0.00 | 0.00 | 71 | 1020.0 |
| 20260503010048 | 55 | 9 | 1.0 | 3.0 | 0.00 | 0.00 | 0.00 | 71 | 1020.1 |
| 20260503005536 | 55 | 360 | 1.0 | 3.0 | 0.00 | 0.00 | 0.00 | 71 | 1020.0 |
| 20260503005035 | 55 | 347 | 1.0 | 3.0 | 0.00 | 0.00 | 0.00 | 71 | 1020.1 |
| 20260503004610 | 56 | 21 | 1.0 | 3.0 | 0.00 | 0.00 | 0.00 | 71 | 1020.1 |
| 20260503004035 | 56 | 17 | 1.0 | 2.0 | 0.00 | 0.00 | 0.00 | 71 | 1020.2 |
| 20260503003536 | 56 | 12 | 0.0 | 2.0 | 0.00 | 0.00 | 0.00 | 70 | 1020.3 |
| 20260503003100 | 56 | 11 | 1.0 | 3.0 | 0.00 | 0.00 | 0.00 | 70 | 1020.3 |
| 20260503002535 | 56 | 9 | 1.0 | 3.0 | 0.00 | 0.00 | 0.00 | 70 | 1020.4 |
| 20260503002035 | 56 | 5 | 1.0 | 3.0 | 0.00 | 0.00 | 0.00 | 70 | 1020.4 |
| 20260503001605 | 56 | 352 | 1.0 | 2.0 | 0.00 | 0.00 | 0.00 | 69 | 1020.4 |
| 20260503001036 | 57 | 9 | 0.0 | 2.0 | 0.00 | 0.00 | 0.00 | 69 | 1020.5 |
| 20260503000538 | 57 | 9 | 0.0 | 2.0 | 0.00 | 0.00 | 0.00 | 69 | 1020.5 |
| 20260503000051 | 57 | 9 | 1.0 | 3.0 | 0.00 | 0.00 | 0.00 | 68 | 1020.5 |
| 20260502235536 | 57 | 360 | 1.0 | 3.0 | 0.00 | 0.00 | 0.00 | 67 | 1020.6 |
| 20260502235035 | 57 | 352 | 1.0 | 3.0 | 0.00 | 0.00 | 0.00 | 67 | 1020.7 |
| 20260502234547 | 57 | 345 | 1.0 | 3.0 | 0.00 | 0.00 | 0.00 | 67 | 1020.7 |
| 20260502234035 | 57 | 348 | 1.0 | 2.0 | 0.00 | 0.00 | 0.00 | 66 | 1020.8 |
| 20260502233535 | 57 | 352 | 1.0 | 2.0 | 0.00 | 0.00 | 0.00 | 66 | 1020.8 |
| 20260502233047 | 57 | 9 | 0.0 | 2.0 | 0.00 | 0.00 | 0.00 | 66 | 1020.8 |
| 20260502232536 | 58 | 5 | 0.0 | 2.0 | 0.00 | 0.00 | 0.00 | 66 | 1020.8 |
| 20260502232035 | 58 | 0 | 0.0 | 3.0 | 0.00 | 0.00 | 0.00 | 65 | 1020.8 |
| 20260502231548 | 58 | 5 | 1.0 | 3.0 | 0.00 | 0.00 | 0.00 | 65 | 1020.8 |
| 20260502231042 | 58 | 5 | 1.0 | 3.0 | 0.00 | 0.00 | 0.00 | 65 | 1020.9 |
| 20260502230537 | 58 | 31 | 0.0 | 4.0 | 0.00 | 0.00 | 0.00 | 64 | 1020.9 |
| 20260502230048 | 58 | 0 | 0.0 | 4.0 | 0.00 | 0.00 | 0.00 | 64 | 1020.9 |
| 20260502225538 | 58 | 348 | 1.0 | 3.0 | 0.00 | 0.00 | 0.00 | 63 | 1020.9 |
| 20260502225037 | 58 | 352 | 1.0 | 3.0 | 0.00 | 0.00 | 0.00 | 63 | 1021.0 |
| 20260502224546 | 58 | 0 | 0.0 | 3.0 | 0.00 | 0.00 | 0.00 | 63 | 1020.9 |
| 20260502224036 | 59 | 0 | 1.0 | 3.0 | 0.00 | 0.00 | 0.00 | 61 | 1021.0 |
| 20260502223537 | 59 | 15 | 1.0 | 3.0 | 0.00 | 0.00 | 0.00 | 62 | 1021.0 |
| 20260502223047 | 59 | 352 | 1.0 | 3.0 | 0.00 | 0.00 | 0.00 | 61 | 1021.1 |
| 20260502222537 | 59 | 352 | 1.0 | 3.0 | 0.00 | 0.00 | 0.00 | 62 | 1021.1 |
| 20260502222036 | 59 | 350 | 0.0 | 4.0 | 0.00 | 0.00 | 0.00 | 63 | 1021.1 |
| 20260502221550 | 59 | 328 | 2.0 | 4.0 | 0.00 | 0.00 | 0.00 | 63 | 1021.1 |
| 20260502221036 | 59 | 347 | 2.0 | 4.0 | 0.00 | 0.00 | 0.00 | 63 | 1021.0 |
| 20260502220536 | 60 | 11 | 1.0 | 3.0 | 0.00 | 0.00 | 0.00 | 62 | 1021.0 |
| 20260502220049 | 60 | 0 | 0.0 | 1.0 | 0.00 | 0.00 | 0.00 | 62 | 1021.0 |
| 20260502215535 | 60 | 0 | 0.0 | 1.0 | 0.00 | 0.00 | 0.00 | 62 | 1021.0 |
| 20260502215034 | 60 | 165 | 0.0 | 1.0 | 0.00 | 0.00 | 0.00 | 61 | 1021.0 |
| 20260502214547 | 60 | 0 | 0.0 | 1.0 | 0.00 | 0.00 | 0.00 | 61 | 1021.0 |
| 20260502214035 | 60 | 0 | 0.0 | 0.0 | 0.00 | 0.00 | 0.00 | 60 | 1020.9 |
| 20260502213536 | 61 | 0 | 0.0 | 0.0 | 0.00 | 0.00 | 0.00 | 60 | 1020.9 |
| 20260502213101 | 61 | 0 | 0.0 | 0.0 | 0.00 | 0.00 | 0.00 | 60 | 1020.9 |
| 20260502212535 | 61 | 0 | 0.0 | 0.0 | 0.00 | 0.00 | 0.00 | 59 | 1020.9 |
| 20260502212037 | 61 | 0 | 0.0 | 0.0 | 0.00 | 0.00 | 0.00 | 58 | 1020.9 |
| 20260502211547 | 61 | 0 | 0.0 | 0.0 | 0.00 | 0.00 | 0.00 | 57 | 1020.9 |
| 20260502211037 | 61 | 0 | 0.0 | 0.0 | 0.00 | 0.00 | 0.00 | 54 | 1020.8 |
| 20260502210538 | 61 | 0 | 0.0 | 0.0 | 0.00 | 0.00 | 0.00 | 54 | 1020.9 |
| 20260502210046 | 61 | 0 | 0.0 | 0.0 | 0.00 | 0.00 | 0.00 | 53 | 1020.9 |
| 20260502205535 | 62 | 0 | 0.0 | 1.0 | 0.00 | 0.00 | 0.00 | 53 | 1020.8 |
| 20260502205038 | 62 | 0 | 0.0 | 1.0 | 0.00 | 0.00 | 0.00 | 53 | 1021.0 |
| 20260502204548 | 62 | 0 | 0.0 | 0.0 | 0.00 | 0.00 | 0.00 | 48 | 1020.9 |
| 20260502204038 | 62 | 0 | 0.0 | 0.0 | 0.00 | 0.00 | 0.00 | 54 | 1020.8 |
| 20260502203535 | 62 | 0 | 0.0 | 1.0 | 0.00 | 0.00 | 0.00 | 53 | 1020.9 |
| 20260502203050 | 62 | 0 | 0.0 | 1.0 | 0.00 | 0.00 | 0.00 | 51 | 1020.9 |
| 20260502202535 | 62 | 0 | 0.0 | 0.0 | 0.00 | 0.00 | 0.00 | 50 | 1020.9 |
| 20260502202036 | 62 | 0 | 0.0 | 0.0 | 0.00 | 0.00 | 0.00 | 45 | 1020.9 |
| 20260502201544 | 63 | 0 | 0.0 | 3.0 | 0.00 | 0.00 | 0.00 | 50 | 1021.0 |
| 20260502201035 | 63 | 0 | 0.0 | 5.0 | 0.00 | 0.00 | 0.00 | 51 | 1021.0 |
| 20260502200536 | 64 | 165 | 2.0 | 5.0 | 0.00 | 0.00 | 0.00 | 49 | 1021.0 |
| 20260502200107 | 64 | 169 | 1.0 | 4.0 | 0.00 | 0.00 | 0.00 | 50 | 1021.0 |
| 20260502195535 | 65 | 0 | 0.0 | 0.0 | 0.00 | 0.00 | 0.00 | 51 | 1021.0 |
| 20260502195036 | 65 | 0 | 0.0 | 0.0 | 0.00 | 0.00 | 0.00 | 52 | 1021.0 |
| 20260502194604 | 65 | 0 | 0.0 | 0.0 | 0.00 | 0.00 | 0.00 | 52 | 1020.9 |
| 20260502194034 | 66 | 0 | 0.0 | 0.0 | 0.00 | 0.00 | 0.00 | 51 | 1020.9 |
| 20260502193540 | 66 | 0 | 0.0 | 0.0 | 0.00 | 0.00 | 0.00 | 51 | 1020.8 |
| 20260502193047 | 66 | 0 | 0.0 | 0.0 | 0.00 | 0.00 | 0.00 | 51 | 1020.8 |
| 20260502192535 | 67 | 0 | 0.0 | 0.0 | 0.00 | 0.00 | 0.00 | 50 | 1020.8 |
| 20260502192037 | 67 | 0 | 0.0 | 0.0 | 0.00 | 0.00 | 0.00 | 49 | 1020.8 |
| 20260502191549 | 68 | 0 | 0.0 | 0.0 | 0.00 | 0.00 | 0.00 | 48 | 1020.8 |
| 20260502191035 | 68 | 0 | 0.0 | 0.0 | 0.00 | 0.00 | 0.00 | 46 | 1020.8 |
| 20260502190535 | 68 | 0 | 0.0 | 0.0 | 0.00 | 0.00 | 0.00 | 46 | 1020.8 |
| 20260502190049 | 68 | 0 | 0.0 | 0.0 | 0.00 | 0.00 | 0.00 | 44 | 1020.7 |
| 20260502185534 | 69 | 0 | 0.0 | 0.0 | 0.00 | 0.00 | 0.00 | 44 | 1020.6 |
| 20260502185035 | 69 | 0 | 0.0 | 0.0 | 0.00 | 0.00 | 0.00 | 37 | 1020.7 |
| 20260502184547 | 69 | 0 | 0.0 | 0.0 | 0.00 | 0.00 | 0.00 | 42 | 1020.6 |
| 20260502184040 | 70 | 0 | 0.0 | 0.0 | 0.00 | 0.00 | 0.00 | 41 | 1020.6 |
| 20260502183535 | 70 | 0 | 0.0 | 0.0 | 0.00 | 0.00 | 0.00 | 40 | 1020.5 |
| 20260502183049 | 71 | 0 | 0.0 | 0.0 | 0.00 | 0.00 | 0.00 | 39 | 1020.6 |
| 20260502182537 | 71 | 0 | 0.0 | 0.0 | 0.00 | 0.00 | 0.00 | 38 | 1020.6 |
| 20260502182036 | 72 | 0 | 0.0 | 1.0 | 0.00 | 0.00 | 0.00 | 39 | 1020.6 |
| 20260502181548 | 72 | 0 | 0.0 | 2.0 | 0.00 | 0.00 | 0.00 | 37 | 1020.5 |
| 20260502181036 | 72 | 0 | 0.0 | 2.0 | 0.00 | 0.00 | 0.00 | 35 | 1020.4 |
| 20260502180536 | 73 | 190 | 0.0 | 3.0 | 0.00 | 0.00 | 0.00 | 31 | 1020.5 |
| 20260502164037 | 76 | 180 | 1.0 | 6.0 | 0.00 | 0.00 | 0.00 | 30 | 1020.6 |
| 20260502163541 | 76 | 196 | 2.0 | 6.0 | 0.00 | 0.00 | 0.00 | 29 | 1020.6 |
| 20260502163054 | 76 | 211 | 2.0 | 5.0 | 0.00 | 0.00 | 0.00 | 30 | 1020.6 |
| 20260502162538 | 76 | 225 | 1.0 | 6.0 | 0.00 | 0.00 | 0.00 | 30 | 1020.7 |
| 20260502162037 | 76 | 0 | 0.0 | 6.0 | 0.00 | 0.00 | 0.00 | 29 | 1020.8 |
| 20260502161548 | 76 | 281 | 2.0 | 7.0 | 0.00 | 0.00 | 0.00 | 29 | 1020.9 |
| 20260502161037 | 76 | 262 | 2.0 | 7.0 | 0.00 | 0.00 | 0.00 | 29 | 1020.9 |
| 20260502160537 | 76 | 262 | 2.0 | 7.0 | 0.00 | 0.00 | 0.00 | 29 | 1021.0 |
| 20260502152038 | 76 | 244 | 2.0 | 7.0 | 0.00 | 0.00 | 0.00 | 29 | 1021.4 |
| 20260502151552 | 76 | 0 | 1.0 | 8.0 | 0.00 | 0.00 | 0.00 | 29 | 1021.4 |
| 20260502151038 | 76 | 266 | 4.0 | 9.0 | 0.00 | 0.00 | 0.00 | 29 | 1021.4 |
| 20260502150538 | 76 | 272 | 3.0 | 9.0 | 0.00 | 0.00 | 0.00 | 30 | 1021.5 |
| 20260502150123 | 77 | 254 | 6.0 | 10.0 | 0.00 | 0.00 | 0.00 | 24 | 1021.5 |
| 20260502130537 | 74 | 0 | 1.0 | 9.0 | 0.00 | 0.00 | 0.00 | 31 | 1023.3 |
| 20260502123537 | 74 | 279 | 3.0 | 9.0 | 0.00 | 0.00 | 0.00 | 31 | 1023.7 |
| 20260502123047 | 74 | 296 | 4.0 | 9.0 | 0.00 | 0.00 | 0.00 | 31 | 1023.8 |
| 20260502122538 | 73 | 227 | 2.0 | 6.0 | 0.00 | 0.00 | 0.00 | 32 | 1023.8 |
| 20260502122039 | 72 | 352 | 2.0 | 7.0 | 0.00 | 0.00 | 0.00 | 32 | 1023.9 |
| 20260502121558 | 73 | 146 | 3.0 | 7.0 | 0.00 | 0.00 | 0.00 | 32 | 1024.0 |
| 20260502121042 | 73 | 114 | 2.0 | 11.0 | 0.00 | 0.00 | 0.00 | 30 | 1024.0 |
| 20260502120537 | 73 | 298 | 6.0 | 11.0 | 0.00 | 0.00 | 0.00 | 31 | 1024.1 |
| 20260502120107 | 74 | 293 | 2.0 | 10.0 | 0.00 | 0.00 | 0.00 | 32 | 1024.2 |
| 20260502115538 | 74 | 0 | 5.0 | 10.0 | 0.00 | 0.00 | 0.00 | 31 | 1024.2 |
| 20260502115037 | 75 | 268 | 3.0 | 9.0 | 0.00 | 0.00 | 0.00 | 31 | 1024.3 |
| 20260502114554 | 75 | 170 | 3.0 | 9.0 | 0.00 | 0.00 | 0.00 | 33 | 1024.4 |
| 20260502114038 | 73 | 0 | 0.0 | 9.0 | 0.00 | 0.00 | 0.00 | 33 | 1024.4 |
| 20260502113539 | 73 | 116 | 3.0 | 9.0 | 0.00 | 0.00 | 0.00 | 32 | 1024.5 |
| 20260502113104 | 73 | 99 | 3.0 | 9.0 | 0.00 | 0.00 | 0.00 | 33 | 1024.5 |
| 20260502112538 | 73 | 173 | 2.0 | 9.0 | 0.00 | 0.00 | 0.00 | 33 | 1024.5 |
| 20260502112039 | 73 | 257 | 3.0 | 9.0 | 0.00 | 0.00 | 0.00 | 33 | 1024.7 |
| 20260502111547 | 72 | 87 | 1.0 | 9.0 | 0.00 | 0.00 | 0.00 | 33 | 1024.7 |
| 20260502111037 | 73 | 282 | 5.0 | 10.0 | 0.00 | 0.00 | 0.00 | 32 | 1024.8 |
| 20260502110539 | 73 | 184 | 2.0 | 10.0 | 0.00 | 0.00 | 0.00 | 33 | 1024.8 |
| 20260502105538 | 73 | 305 | 4.0 | 7.0 | 0.00 | 0.00 | 0.00 | 32 | 1025.1 |
| 20260502105039 | 73 | 234 | 2.0 | 7.0 | 0.00 | 0.00 | 0.00 | 33 | 1025.2 |
| 20260502104549 | 72 | 179 | 2.0 | 6.0 | 0.00 | 0.00 | 0.00 | 29 | 1025.2 |
| 20260502104037 | 71 | 135 | 1.0 | 7.0 | 0.00 | 0.00 | 0.00 | 34 | 1025.3 |
| 20260502103537 | 71 | 343 | 2.0 | 11.0 | 0.00 | 0.00 | 0.00 | 34 | 1025.4 |
| 20260502103108 | 71 | 313 | 5.0 | 11.0 | 0.00 | 0.00 | 0.00 | 35 | 1025.5 |
| 20260502102537 | 71 | 286 | 2.0 | 5.0 | 0.00 | 0.00 | 0.00 | 30 | 1025.5 |
| 20260502102038 | 70 | 333 | 1.0 | 7.0 | 0.00 | 0.00 | 0.00 | 35 | 1025.5 |
| 20260502101552 | 70 | 180 | 3.0 | 8.0 | 0.00 | 0.00 | 0.00 | 35 | 1025.7 |
| 20260502101037 | 70 | 217 | 2.0 | 8.0 | 0.00 | 0.00 | 0.00 | 37 | 1025.7 |
| 20260502100540 | 70 | 217 | 4.0 | 9.0 | 0.00 | 0.00 | 0.00 | 36 | 1025.7 |
| 20260502091037 | 69 | 184 | 2.0 | 4.0 | 0.00 | 0.00 | 0.00 | 38 | 1026.3 |
| 20260502090536 | 68 | 163 | 0.0 | 4.0 | 0.00 | 0.00 | 0.00 | 38 | 1026.4 |
| 20260502071035 | 60 | 110 | 1.0 | 4.0 | 0.00 | 0.00 | 0.00 | 60 | 1027.1 |
| 20260502070536 | 60 | 118 | 2.0 | 4.0 | 0.00 | 0.00 | 0.00 | 61 | 1027.1 |
| 20260502070059 | 60 | 138 | 2.0 | 4.0 | 0.00 | 0.00 | 0.00 | 61 | 1027.1 |
| 20260502065537 | 60 | 131 | 2.0 | 3.0 | 0.00 | 0.00 | 0.00 | 61 | 1027.1 |
| 20260502065036 | 59 | 85 | 1.0 | 3.0 | 0.00 | 0.00 | 0.00 | 61 | 1027.1 |
| 20260502064546 | 59 | 0 | 1.0 | 3.0 | 0.00 | 0.00 | 0.00 | 62 | 1027.2 |
| 20260502064038 | 59 | 0 | 1.0 | 3.0 | 0.00 | 0.00 | 0.00 | 62 | 1027.1 |
| 20260502063534 | 58 | 0 | 1.0 | 3.0 | 0.00 | 0.00 | 0.00 | 62 | 1027.1 |
| 20260502063227 | 58 | 0 | 0.0 | 3.0 | 0.00 | 0.00 | 0.00 | 63 | 1027.2 |
| 20260502062538 | 57 | 84 | 0.0 | 3.0 | 0.00 | 0.00 | 0.00 | 63 | 1027.2 |
| 20260502062041 | 57 | 94 | 1.0 | 3.0 | 0.00 | 0.00 | 0.00 | 64 | 1027.2 |
| 20260502061546 | 57 | 0 | 1.0 | 3.0 | 0.00 | 0.00 | 0.00 | 66 | 1027.1 |
| 20260502061040 | 56 | 159 | 0.0 | 2.0 | 0.00 | 0.00 | 0.00 | 67 | 1027.1 |
| 20260502060538 | 55 | 0 | 0.0 | 2.0 | 0.00 | 0.00 | 0.00 | 72 | 1027.1 |
| 20260502060105 | 55 | 0 | 0.0 | 2.0 | 0.00 | 0.00 | 0.00 | 73 | 1027.1 |
| 20260502055538 | 55 | 0 | 0.0 | 2.0 | 0.00 | 0.00 | 0.00 | 74 | 1027.1 |